TimeMDT,TemperatureF,Dew PointF,Humidity,Sea Level PressureIn,VisibilityMPH,Wind Direction,Wind SpeedMPH,Gust SpeedMPH,PrecipitationIn,Events,Conditions,WindDirDegrees,DateUTC
12:15 AM,65.7,52.9,63,30.38,10.0,WNW,3.5,-,N/A,,Mostly Cloudy,300,2013-08-01 06:15:00
12:35 AM,66.0,53.1,63,30.39,10.0,SW,3.5,-,N/A,,Mostly Cloudy,230,2013-08-01 06:35:00
12:55 AM,64.6,53.1,66,30.39,10.0,SSE,3.5,-,N/A,,Mostly Cloudy,150,2013-08-01 06:55:00
1:15 AM,63.5,52.9,68,30.38,10.0,Calm,Calm,-,N/A,,Scattered Clouds,0,2013-08-01 07:15:00
1:35 AM,66.4,51.3,58,30.38,10.0,SE,6.9,-,N/A,,Clear,140,2013-08-01 07:35:00
1:55 AM,65.8,51.6,60,30.38,10.0,ESE,4.6,-,N/A,,Clear,110,2013-08-01 07:55:00
2:15 AM,65.8,51.6,60,30.38,10.0,East,9.2,-,N/A,,Clear,100,2013-08-01 08:15:00
2:35 AM,67.1,52.7,60,30.37,10.0,ESE,11.5,-,N/A,,Clear,110,2013-08-01 08:35:00
2:55 AM,68.0,52.7,58,30.36,10.0,ESE,12.7,-,N/A,,Clear,110,2013-08-01 08:55:00
3:15 AM,67.5,53.6,61,30.36,10.0,ESE,10.4,-,N/A,,Mostly Cloudy,120,2013-08-01 09:15:00
3:35 AM,67.8,52.9,59,30.36,10.0,SE,9.2,-,N/A,,Overcast,130,2013-08-01 09:35:00
3:55 AM,67.5,53.4,61,30.37,10.0,ESE,6.9,-,N/A,,Overcast,110,2013-08-01 09:55:00
4:15 AM,66.9,54.0,63,30.37,10.0,NE,4.6,-,N/A,,Overcast,50,2013-08-01 10:15:00
4:35 AM,66.6,54.1,64,30.37,10.0,East,3.5,-,N/A,,Overcast,80,2013-08-01 10:35:00
4:55 AM,66.6,54.3,65,30.37,10.0,ENE,5.8,-,N/A,Thunderstorm,Overcast,70,2013-08-01 10:55:00
5:15 AM,66.4,54.5,66,30.37,10.0,ENE,3.5,-,N/A,,Overcast,60,2013-08-01 11:15:00
5:35 AM,64.6,56.5,75,30.37,10.0,Calm,Calm,-,0.01,Rain,Light Rain,0,2013-08-01 11:35:00
5:55 AM,64.6,58.3,80,30.38,10.0,ESE,6.9,-,0.02,Rain,Rain,110,2013-08-01 11:55:00
6:15 AM,62.6,56.8,81,30.39,10.0,SE,5.8,11.5,0.03,Rain-Thunderstorm,Light Thunderstorms and Rain,140,2013-08-01 12:15:00
6:35 AM,63.5,57.6,81,30.39,10.0,ESE,9.2,-,0.03,,Overcast,120,2013-08-01 12:35:00
6:55 AM,63.1,57.6,82,30.40,10.0,ESE,8.1,-,0.03,,Light Drizzle,120,2013-08-01 12:55:00
7:15 AM,63.7,57.9,81,30.40,10.0,SE,6.9,-,N/A,,Overcast,140,2013-08-01 13:15:00
7:35 AM,63.7,57.9,81,30.41,10.0,SSE,9.2,-,N/A,,Overcast,150,2013-08-01 13:35:00
7:55 AM,63.0,57.7,83,30.41,10.0,South,10.4,-,N/A,,Overcast,170,2013-08-01 13:55:00
8:15 AM,63.3,58.3,84,30.41,10.0,South,11.5,-,N/A,,Overcast,180,2013-08-01 14:15:00
8:35 AM,63.5,58.1,83,30.41,10.0,South,10.4,-,N/A,,Overcast,180,2013-08-01 14:35:00
8:55 AM,64.0,58.1,81,30.41,10.0,SSW,8.1,-,N/A,,Overcast,200,2013-08-01 14:55:00
9:15 AM,65.5,58.1,77,30.41,10.0,SSW,8.1,-,N/A,,Overcast,210,2013-08-01 15:15:00
9:35 AM,65.3,57.6,76,30.41,10.0,SSW,10.4,-,N/A,,Overcast,200,2013-08-01 15:35:00
9:55 AM,63.7,56.5,77,30.41,10.0,SSW,15.0,-,N/A,Rain,Light Rain,200,2013-08-01 15:55:00
10:15 AM,62.6,57.0,82,30.41,10.0,SSE,9.2,-,N/A,Rain,Rain,160,2013-08-01 16:15:00
10:35 AM,63.7,57.0,79,30.41,10.0,SSE,9.2,-,N/A,,Light Drizzle,150,2013-08-01 16:35:00
10:55 AM,64.4,57.2,77,30.41,10.0,ESE,5.8,-,N/A,Rain,Light Rain,110,2013-08-01 16:55:00
11:15 AM,66.2,55.4,68,30.40,10.0,West,3.5,-,N/A,,Light Drizzle,260,2013-08-01 17:15:00
11:35 AM,67.3,55.6,66,30.38,10.0,WNW,6.9,-,N/A,,Scattered Clouds,300,2013-08-01 17:35:00
11:55 AM,70.3,55.4,59,30.37,10.0,WNW,5.8,-,N/A,Thunderstorm,Clear,300,2013-08-01 17:55:00
12:15 PM,72.3,54.1,53,30.36,10.0,WNW,5.8,-,N/A,Thunderstorm,Clear,300,2013-08-01 18:15:00
12:35 PM,72.9,55.9,55,30.35,10.0,WNW,5.8,-,N/A,,Scattered Clouds,300,2013-08-01 18:35:00
12:55 PM,73.4,54.0,50,30.34,10.0,West,6.9,-,N/A,,Clear,280,2013-08-01 18:55:00
1:15 PM,76.3,54.5,47,30.34,10.0,West,8.1,-,N/A,,Clear,260,2013-08-01 19:15:00
1:35 PM,77.4,55.6,47,30.32,10.0,WSW,9.2,-,N/A,,Clear,250,2013-08-01 19:35:00
1:55 PM,77.7,55.6,46,30.31,10.0,West,9.2,16.1,N/A,,Clear,280,2013-08-01 19:55:00
2:15 PM,79.3,55.2,43,30.31,10.0,WSW,9.2,17.3,N/A,,Scattered Clouds,250,2013-08-01 20:15:00
2:35 PM,78.3,55.8,46,30.30,10.0,WSW,5.8,-,N/A,,Mostly Cloudy,240,2013-08-01 20:35:00
2:55 PM,79.2,54.5,42,30.28,10.0,South,12.7,-,N/A,,Overcast,190,2013-08-01 20:55:00
3:15 PM,80.4,55.2,42,30.28,10.0,South,11.5,-,N/A,,Overcast,190,2013-08-01 21:15:00
3:35 PM,77.9,54.7,45,30.29,10.0,South,10.4,-,N/A,,Mostly Cloudy,180,2013-08-01 21:35:00
3:55 PM,73.4,52.5,48,30.31,10.0,South,18.4,27.6,N/A,,Mostly Cloudy,170,2013-08-01 21:55:00
4:15 PM,64.2,57.6,79,30.31,5.0,South,28.8,32.2,N/A,Rain-Thunderstorm,Light Thunderstorms and Rain,170,2013-08-01 22:15:00
4:35 PM,62.1,55.6,79,30.31,0.8,SSE,23.0,33.4,0.09,Rain-Thunderstorm,Thunderstorms and Rain,150,2013-08-01 22:35:00
4:55 PM,62.2,55.9,80,30.31,5.0,SSE,11.5,21.9,0.15,Rain-Thunderstorm,Thunderstorms and Rain,160,2013-08-01 22:55:00
5:15 PM,62.8,57.0,81,30.31,10.0,Calm,Calm,-,0.04,Rain-Thunderstorm,Light Thunderstorms and Rain,0,2013-08-01 23:15:00
5:35 PM,63.1,58.6,85,30.31,10.0,WSW,6.9,-,0.05,Thunderstorm,Overcast,250,2013-08-01 23:35:00
5:55 PM,64.2,58.5,82,30.31,10.0,West,6.9,-,0.05,Rain-Thunderstorm,Light Thunderstorms and Rain,280,2013-08-01 23:55:00
6:15 PM,63.7,59.7,87,30.29,10.0,North,6.9,-,N/A,Rain,Rain,10,2013-08-02 00:15:00
6:35 PM,63.0,59.0,87,30.28,10.0,NNE,3.5,-,N/A,Rain,Light Rain,30,2013-08-02 00:35:00
6:55 PM,63.7,59.4,86,30.28,10.0,ENE,3.5,-,0.01,,Scattered Clouds,60,2013-08-02 00:55:00
7:15 PM,63.9,59.7,86,30.29,10.0,NNE,3.5,-,N/A,Thunderstorm,Clear,20,2013-08-02 01:15:00
7:35 PM,63.9,60.1,87,30.29,10.0,North,3.5,-,N/A,,Scattered Clouds,360,2013-08-02 01:35:00
7:55 PM,63.5,60.1,89,30.29,10.0,North,3.5,-,N/A,,Scattered Clouds,360,2013-08-02 01:55:00
8:15 PM,63.0,59.9,90,30.28,10.0,NNW,3.5,-,N/A,,Scattered Clouds,340,2013-08-02 02:15:00
8:35 PM,62.8,59.9,90,30.29,10.0,NNW,4.6,-,N/A,,Scattered Clouds,330,2013-08-02 02:35:00
8:55 PM,62.6,59.7,90,30.29,10.0,Calm,Calm,-,N/A,,Scattered Clouds,0,2013-08-02 02:55:00
9:15 PM,62.1,59.5,91,30.29,10.0,NNE,4.6,-,N/A,,Clear,30,2013-08-02 03:15:00
9:35 PM,62.2,58.6,88,30.29,10.0,NNE,3.5,-,N/A,,Scattered Clouds,30,2013-08-02 03:35:00
9:55 PM,62.6,59.0,88,30.29,10.0,ENE,3.5,-,N/A,,Scattered Clouds,60,2013-08-02 03:55:00
10:15 PM,63.0,59.7,89,30.29,10.0,Calm,Calm,-,N/A,,Scattered Clouds,0,2013-08-02 04:15:00
10:35 PM,62.6,60.1,91,30.29,10.0,Calm,Calm,-,N/A,,Mostly Cloudy,0,2013-08-02 04:35:00
10:55 PM,62.2,59.9,92,30.28,10.0,Calm,Calm,-,N/A,,Overcast,0,2013-08-02 04:55:00
11:15 PM,62.6,59.9,91,30.28,10.0,Calm,Calm,-,N/A,,Overcast,0,2013-08-02 05:15:00
11:35 PM,62.6,60.1,91,30.28,10.0,Calm,Calm,-,N/A,,Overcast,0,2013-08-02 05:35:00
11:55 PM,61.9,59.2,91,30.28,10.0,Calm,Calm,-,N/A,,Scattered Clouds,0,2013-08-02 05:55:00